Location: Góry Miechowskie
(50.3599°N, 20.1803°E)
Time: 06:17:29
(UTC+00:00)

A-11 Canister half - Pass Details

Date: 18 September 2024
Orbit: 1515 x 1684 km, 47.2° (Epoch: 04 October)

Event Time Altitude Azimuth Distance (km) Brightness Sun altitude
Rises 17:18:33 0° 239° (WSW) 4,740 12.4 -6.1°
Reaches altitude 10° 17:21:41 10° 235° (SW) 3,737 11.8 -6.6°
Maximum altitude 17:30:51 61° 159° (SSE) 1,707 9.1 -8.0°
Drops below altitude 10° 17:39:52 10° 82° (E) 3,678 10.4 -9.4°
Enters shadow 17:40:28 - 82° (E) 3,868 10.5 -9.5°
Sets 17:42:56 0° 80° (E) 4,661 - -9.9°
